2022/06/19 23:28:32+0000,-34.51,-44.98,-32.25,-42.41,-52.69,-53.58
2022/06/19 23:29:24+0000,-35.16,-42.88,-32.37,-41.00,-52.09,-53.70
2022/06/19 23:30:16+0000,-35.54,-43.44,-32.51,-42.25,-51.27,-53.67
2022/06/19 23:31:16+0000,-35.45,-41.30,-32.94,-42.50,-52.90,-54.02
2022/06/19 23:32:08+0000,-35.94,-44.74,-32.89,-42.74,-52.97,-53.75
2022/06/19 23:33:00+0000,-35.90,-42.88,-32.69,-42.13,-52.81,-53.65
2022/06/19 23:33:52+0000,-35.46,-41.79,-32.47,-42.88,-53.21,-54.11
2022/06/19 23:34:45+0000,-35.93,-44.11,-33.33,-41.96,-53.12,-53.79
2022/06/19 23:35:37+0000,-35.63,-44.24,-33.41,-41.91,-53.05,-54.08
2022/06/19 23:36:29+0000,-35.41,-43.32,-32.40,-44.29,-53.11,-54.22
2022/06/19 23:37:21+0000,-34.95,-45.38,-32.19,-41.47,-53.05,-54.21
2022/06/19 23:38:13+0000,-35.15,-44.20,-31.94,-41.90,-53.57,-53.66
2022/06/19 23:39:05+0000,-34.19,-44.20,-31.84,-42.89,-53.38,-53.90
2022/06/19 23:39:57+0000,-35.21,-44.61,-31.89,-42.84,-53.28,-53.91
2022/06/19 23:40:49+0000,-35.57,-44.66,-32.22,-42.78,-52.53,-54.32
2022/06/19 23:41:50+0000,-35.51,-44.37,-32.21,-41.55,-53.06,-53.90
2022/06/19 23:42:42+0000,-35.88,-42.48,-31.51,-42.50,-52.55,-54.20
2022/06/19 23:43:34+0000,-35.66,-44.69,-32.58,-41.49,-53.13,-54.32
2022/06/19 23:44:26+0000,-35.87,-44.08,-31.74,-41.90,-52.73,-54.16
2022/06/19 23:45:18+0000,-35.84,-46.04,-32.34,-41.38,-52.93,-54.06
2022/06/19 23:46:10+0000,-35.41,-45.65,-32.20,-41.31,-52.54,-53.13
2022/06/19 23:47:02+0000,-34.57,-43.12,-32.60,-41.60,-52.58,-53.31
2022/06/19 23:47:54+0000,-34.22,-42.83,-32.16,-43.03,-53.01,-53.42
2022/06/19 23:48:46+0000,-35.05,-43.54,-32.20,-42.27,-52.70,-53.75
2022/06/19 23:49:38+0000,-35.31,-43.01,-31.97,-42.28,-52.29,-53.23
2022/06/19 23:50:30+0000,-35.07,-41.82,-32.16,-42.28,-52.56,-52.99
2022/06/19 23:51:28+0000,-34.82,-43.32,-31.49,-40.66,-52.44,-53.24
2022/06/19 23:52:20+0000,-33.62,-41.93,-32.43,-42.39,-51.98,-53.73
2022/06/19 23:53:12+0000,-34.64,-42.19,-31.65,-41.77,-52.90,-53.34
2022/06/19 23:54:05+0000,-34.38,-42.09,-32.54,-42.83,-53.06,-53.16
2022/06/19 23:54:57+0000,-34.75,-44.34,-31.86,-42.50,-52.22,-53.30
2022/06/19 23:55:49+0000,-34.21,-40.96,-32.46,-41.34,-52.47,-53.51
2022/06/19 23:56:41+0000,-34.99,-42.06,-31.73,-43.05,-52.48,-53.24
2022/06/19 23:57:33+0000,-34.83,-42.86,-32.16,-41.69,-52.25,-53.12
2022/06/19 23:58:25+0000,-35.42,-44.74,-32.11,-41.83,-52.18,-52.70
2022/06/19 23:59:17+0000,-34.46,-44.37,-31.82,-42.25,-52.28,-53.43
2022/06/20 00:00:09+0000,-33.89,-41.51,-31.52,-42.16,-52.32,-52.94
2022/06/20 00:01:17+0000,-35.31,-42.39,-31.62,-41.98,-52.19,-52.99
2022/06/20 00:02:09+0000,-35.05,-41.57,-31.84,-42.42,-52.32,-53.36
2022/06/20 00:03:01+0000,-34.98,-43.89,-32.31,-40.68,-52.46,-53.51
2022/06/20 00:03:53+0000,-35.80,-42.89,-31.78,-41.39,-52.00,-53.67
2022/06/20 00:04:45+0000,-35.42,-41.79,-32.12,-41.34,-52.07,-53.23
2022/06/20 00:05:37+0000,-34.96,-42.65,-32.05,-41.28,-52.97,-53.57
2022/06/20 00:06:29+0000,-34.23,-42.48,-32.36,-41.46,-52.72,-53.62
2022/06/20 00:07:21+0000,-34.29,-44.63,-32.29,-42.37,-52.76,-53.82
2022/06/20 00:08:13+0000,-34.41,-44.93,-31.76,-41.55,-53.31,-53.58
2022/06/20 00:09:05+0000,-35.25,-44.34,-32.17,-43.00,-52.67,-53.94
2022/06/20 00:09:57+0000,-33.39,-44.86,-31.85,-43.01,-52.39,-53.68
2022/06/20 00:10:49+0000,-34.88,-45.27,-32.50,-41.96,-52.36,-53.78
2022/06/20 00:11:49+0000,-35.14,-45.84,-31.81,-43.38,-53.13,-53.81
2022/06/20 00:12:41+0000,-34.80,-45.78,-32.53,-41.84,-53.09,-53.85
2022/06/20 00:13:33+0000,-34.26,-44.72,-32.13,-42.41,-52.79,-53.78
2022/06/20 00:14:25+0000,-34.25,-44.72,-32.00,-40.57,-52.42,-53.94
2022/06/20 00:15:17+0000,-34.14,-44.91,-32.25,-42.52,-52.33,-53.63
2022/06/20 00:16:09+0000,-34.75,-45.34,-32.09,-41.69,-52.70,-54.30
2022/06/20 00:17:01+0000,-34.44,-44.62,-32.25,-41.56,-52.80,-53.19
2022/06/20 00:17:53+0000,-34.04,-45.10,-32.62,-42.16,-53.68,-54.10
2022/06/20 00:18:45+0000,-34.83,-45.87,-31.63,-41.86,-53.99,-54.39
2022/06/20 00:19:37+0000,-33.70,-45.68,-31.78,-40.51,-53.19,-54.46
2022/06/20 00:20:29+0000,-34.08,-45.55,-31.95,-42.20,-53.62,-53.89
2022/06/20 00:21:29+0000,-34.80,-45.62,-32.15,-42.01,-53.32,-54.20
2022/06/20 00:22:21+0000,-33.56,-44.82,-31.47,-41.11,-52.89,-53.65
2022/06/20 00:23:13+0000,-34.41,-43.83,-32.33,-41.36,-53.20,-54.35
2022/06/20 00:24:05+0000,-34.37,-45.05,-32.03,-42.67,-53.46,-54.34
2022/06/20 00:24:57+0000,-34.42,-44.33,-32.07,-41.25,-53.84,-54.12
2022/06/20 00:25:49+0000,-35.39,-44.00,-32.06,-41.10,-53.23,-54.36
2022/06/20 00:26:41+0000,-34.42,-43.61,-32.13,-41.38,-53.45,-53.90
2022/06/20 00:27:33+0000,-34.19,-44.93,-32.21,-41.87,-53.99,-54.24
2022/06/20 00:28:25+0000,-35.03,-44.82,-32.12,-40.72,-53.52,-54.19
2022/06/20 00:29:17+0000,-34.24,-44.37,-31.85,-40.87,-53.59,-53.61
2022/06/20 00:30:09+0000,-34.99,-43.77,-31.84,-41.38,-53.79,-53.75
2022/06/20 00:31:10+0000,-33.78,-44.61,-31.93,-41.07,-52.93,-54.07
2022/06/20 00:32:02+0000,-34.80,-44.34,-32.13,-40.53,-53.45,-54.33
2022/06/20 00:32:54+0000,-34.33,-45.47,-31.94,-40.68,-53.39,-53.85
2022/06/20 00:33:46+0000,-34.32,-45.69,-31.67,-40.04,-53.38,-54.51
2022/06/20 00:34:38+0000,-33.78,-44.77,-32.02,-40.79,-53.09,-54.40
2022/06/20 00:35:30+0000,-34.60,-45.35,-32.52,-40.54,-53.70,-53.83
2022/06/20 00:36:22+0000,-35.35,-45.00,-32.23,-41.15,-53.34,-53.63
2022/06/20 00:37:14+0000,-34.45,-45.40,-31.99,-41.03,-52.82,-54.02
2022/06/20 00:38:06+0000,-34.43,-45.47,-31.71,-40.72,-53.03,-54.03
2022/06/20 00:38:58+0000,-34.00,-45.22,-31.60,-40.66,-52.71,-54.21
2022/06/20 00:39:50+0000,-34.42,-45.16,-31.77,-41.14,-52.99,-54.23
2022/06/20 00:40:42+0000,-34.59,-45.07,-31.64,-40.34,-53.30,-53.99
2022/06/20 00:41:41+0000,-34.55,-44.67,-31.49,-41.48,-53.40,-53.68
2022/06/20 00:42:33+0000,-34.43,-44.23,-32.02,-41.97,-52.68,-54.69
2022/06/20 00:43:25+0000,-34.20,-44.01,-32.33,-41.65,-53.96,-54.40
2022/06/20 00:44:17+0000,-33.88,-44.34,-32.30,-40.22,-53.19,-54.34
2022/06/20 00:45:09+0000,-34.57,-45.38,-31.54,-41.01,-52.92,-54.28
2022/06/20 00:46:01+0000,-34.71,-45.38,-31.98,-40.23,-53.20,-53.84
2022/06/20 00:46:53+0000,-34.25,-45.61,-32.77,-39.72,-53.65,-53.89
2022/06/20 00:47:45+0000,-34.02,-45.80,-32.55,-41.42,-52.58,-54.40
2022/06/20 00:48:37+0000,-33.74,-46.18,-32.77,-41.01,-52.96,-54.77
2022/06/20 00:49:29+0000,-33.91,-44.49,-33.21,-40.31,-53.17,-53.81
2022/06/20 00:50:21+0000,-34.95,-43.93,-33.05,-39.89,-53.19,-54.17
2022/06/20 00:51:22+0000,-34.30,-44.08,-32.40,-39.65,-53.49,-54.31
2022/06/20 00:52:14+0000,-33.95,-45.45,-32.80,-41.53,-52.46,-54.13
2022/06/20 00:53:06+0000,-34.09,-44.83,-32.79,-41.65,-52.70,-54.12
2022/06/20 00:53:58+0000,-33.71,-44.77,-32.09,-39.61,-52.87,-53.69
2022/06/20 00:54:50+0000,-34.17,-45.06,-32.80,-41.85,-53.11,-53.19
2022/06/20 00:55:42+0000,-33.88,-45.47,-32.47,-42.01,-52.85,-54.45
2022/06/20 00:56:34+0000,-34.33,-44.66,-32.74,-41.51,-53.20,-54.48
2022/06/20 00:57:26+0000,-34.60,-44.84,-32.52,-42.01,-52.72,-53.85
2022/06/20 00:58:18+0000,-34.30,-45.11,-32.49,-41.81,-53.12,-54.02
2022/06/20 00:59:10+0000,-34.39,-45.88,-32.15,-40.82,-52.52,-53.79
2022/06/20 01:00:02+0000,-34.18,-44.90,-32.50,-39.47,-52.62,-53.68
2022/06/20 01:01:09+0000,-34.49,-45.00,-32.40,-40.37,-53.06,-53.38
2022/06/20 01:02:01+0000,-33.88,-43.50,-32.91,-39.98,-53.23,-53.91
2022/06/20 01:02:53+0000,-35.44,-42.99,-32.11,-39.43,-53.07,-54.56
2022/06/20 01:03:45+0000,-34.65,-42.33,-32.46,-41.23,-52.73,-53.81
2022/06/20 01:04:37+0000,-33.43,-42.64,-32.94,-40.86,-52.87,-53.98
2022/06/20 01:05:29+0000,-33.25,-41.88,-33.11,-40.66,-52.79,-53.84
2022/06/20 01:06:22+0000,-34.73,-42.26,-32.65,-40.56,-52.67,-53.61
2022/06/20 01:07:14+0000,-33.88,-44.25,-32.18,-43.51,-53.34,-54.25
2022/06/20 01:08:06+0000,-33.39,-44.05,-32.81,-41.47,-52.63,-54.34
2022/06/20 01:08:58+0000,-34.65,-44.48,-32.94,-39.58,-53.47,-53.39
2022/06/20 01:09:50+0000,-34.17,-42.76,-32.96,-41.56,-52.43,-53.33
2022/06/20 01:10:42+0000,-33.66,-41.86,-32.27,-40.82,-52.85,-53.73
2022/06/20 01:11:40+0000,-35.04,-41.81,-32.14,-41.37,-52.40,-54.03
2022/06/20 01:12:32+0000,-33.14,-40.71,-32.11,-41.43,-52.84,-53.85
2022/06/20 01:13:24+0000,-34.10,-42.62,-32.19,-39.45,-53.20,-53.65
2022/06/20 01:14:16+0000,-34.19,-41.71,-32.58,-40.21,-52.48,-54.00
2022/06/20 01:15:08+0000,-34.60,-41.00,-32.54,-41.48,-52.88,-53.94
2022/06/20 01:16:00+0000,-34.00,-41.40,-33.54,-39.63,-53.14,-54.07
2022/06/20 01:16:52+0000,-34.93,-42.81,-33.36,-39.82,-53.67,-53.35
2022/06/20 01:17:44+0000,-34.26,-41.60,-32.43,-41.09,-52.89,-54.40
2022/06/20 01:18:36+0000,-34.44,-42.50,-33.04,-41.36,-52.88,-53.29
2022/06/20 01:19:28+0000,-33.97,-42.10,-33.02,-40.17,-52.99,-54.32
2022/06/20 01:20:21+0000,-35.26,-42.72,-32.88,-39.07,-52.54,-53.79
2022/06/20 01:21:21+0000,-34.71,-42.16,-33.12,-39.55,-53.37,-53.84
2022/06/20 01:22:13+0000,-34.12,-42.06,-33.11,-42.54,-53.03,-53.86
2022/06/20 01:23:05+0000,-33.78,-42.63,-32.09,-42.37,-52.36,-53.53
2022/06/20 01:23:57+0000,-34.58,-41.67,-32.99,-42.22,-52.02,-53.42
2022/06/20 01:24:49+0000,-33.73,-40.65,-33.39,-41.85,-52.39,-53.37
2022/06/20 01:25:41+0000,-35.28,-42.54,-32.62,-41.24,-52.19,-53.29
2022/06/20 01:26:33+0000,-34.54,-41.62,-32.83,-42.17,-52.13,-53.56
2022/06/20 01:27:25+0000,-34.17,-41.43,-32.70,-39.30,-52.55,-53.21
2022/06/20 01:28:17+0000,-34.35,-41.88,-32.88,-41.04,-52.53,-53.00
2022/06/20 01:29:09+0000,-34.27,-41.79,-32.87,-40.12,-52.07,-53.61
2022/06/20 01:30:01+0000,-35.04,-42.48,-33.10,-39.69,-51.93,-53.66
2022/06/20 01:30:59+0000,-33.78,-43.65,-33.50,-39.74,-53.19,-53.49
2022/06/20 01:31:51+0000,-34.85,-43.06,-32.86,-38.66,-52.65,-53.03
2022/06/20 01:32:44+0000,-34.50,-43.79,-33.09,-41.25,-52.49,-53.59
2022/06/20 01:33:36+0000,-34.54,-43.64,-32.96,-41.04,-53.16,-53.69
2022/06/20 01:34:28+0000,-34.90,-44.12,-33.08,-40.40,-53.33,-53.68
2022/06/20 01:35:20+0000,-34.80,-43.53,-33.61,-41.39,-52.78,-54.01
2022/06/20 01:36:12+0000,-33.96,-43.97,-32.81,-40.75,-52.64,-54.09
2022/06/20 01:37:04+0000,-33.56,-42.26,-33.39,-41.72,-53.36,-54.13
2022/06/20 01:37:56+0000,-34.63,-41.00,-32.97,-39.75,-51.86,-54.27
2022/06/20 01:38:48+0000,-34.39,-41.93,-33.27,-41.54,-52.52,-53.60
2022/06/20 01:39:40+0000,-34.59,-41.88,-33.04,-41.04,-52.65,-53.76
2022/06/20 01:40:32+0000,-34.74,-41.23,-33.32,-39.27,-52.59,-53.83
2022/06/20 01:41:30+0000,-34.90,-42.52,-32.81,-40.10,-52.42,-53.28
2022/06/20 01:42:22+0000,-34.73,-43.07,-33.45,-42.10,-52.26,-53.58
2022/06/20 01:43:14+0000,-34.06,-41.14,-32.49,-40.49,-52.45,-53.99
2022/06/20 01:44:06+0000,-34.30,-40.69,-32.26,-39.31,-52.76,-53.61
2022/06/20 01:44:58+0000,-33.60,-41.96,-32.70,-42.42,-52.20,-53.81
2022/06/20 01:45:50+0000,-33.83,-41.76,-32.61,-42.84,-52.54,-53.42
2022/06/20 01:46:42+0000,-33.56,-41.74,-32.10,-39.79,-52.68,-53.56
2022/06/20 01:47:34+0000,-34.10,-41.96,-32.13,-41.90,-52.23,-53.29
2022/06/20 01:48:26+0000,-33.66,-40.67,-32.66,-42.19,-51.94,-53.53
2022/06/20 01:49:19+0000,-33.85,-42.38,-31.90,-42.55,-52.25,-53.32
2022/06/20 01:50:11+0000,-34.06,-40.67,-32.41,-39.56,-52.06,-53.93
2022/06/20 01:51:15+0000,-33.77,-40.55,-33.04,-39.72,-52.27,-53.61
2022/06/20 01:52:07+0000,-34.27,-40.75,-32.53,-40.35,-52.43,-54.09
2022/06/20 01:52:59+0000,-34.36,-41.28,-31.91,-41.38,-52.34,-53.63
2022/06/20 01:53:52+0000,-34.11,-41.82,-32.18,-42.43,-52.98,-53.40
2022/06/20 01:54:44+0000,-34.07,-40.14,-32.46,-40.65,-52.40,-53.57
2022/06/20 01:55:36+0000,-33.75,-42.27,-31.79,-42.60,-52.58,-53.42
2022/06/20 01:56:28+0000,-33.60,-41.62,-32.41,-41.28,-52.68,-53.70
2022/06/20 01:57:20+0000,-33.45,-42.02,-32.76,-42.57,-51.68,-53.43
2022/06/20 01:58:12+0000,-33.91,-42.91,-32.40,-41.97,-52.20,-53.74
2022/06/20 01:59:04+0000,-32.76,-42.44,-32.52,-41.43,-52.69,-53.77
2022/06/20 01:59:56+0000,-34.37,-43.13,-32.20,-41.26,-52.67,-53.29
2022/06/20 02:00:48+0000,-33.65,-41.87,-32.31,-40.32,-52.23,-53.30
2022/06/20 02:01:49+0000,-34.11,-42.13,-32.47,-41.74,-51.99,-53.68
2022/06/20 02:02:41+0000,-34.29,-42.18,-32.25,-42.14,-52.30,-53.69
2022/06/20 02:03:33+0000,-34.35,-41.46,-32.00,-43.35,-52.62,-53.87
2022/06/20 02:04:25+0000,-34.07,-41.91,-32.48,-41.35,-51.60,-53.79
2022/06/20 02:05:17+0000,-33.82,-41.39,-32.43,-41.97,-52.74,-53.90
2022/06/20 02:06:09+0000,-33.76,-42.24,-32.72,-41.25,-51.83,-53.24
2022/06/20 02:07:01+0000,-33.91,-41.20,-32.71,-41.17,-52.73,-53.10
2022/06/20 02:07:53+0000,-34.20,-41.20,-32.28,-41.99,-52.85,-53.54
2022/06/20 02:08:45+0000,-34.07,-41.87,-32.33,-41.73,-52.47,-53.31
2022/06/20 02:09:37+0000,-34.14,-41.98,-32.69,-41.99,-52.73,-53.71
2022/06/20 02:10:30+0000,-34.28,-42.05,-31.95,-41.67,-52.24,-53.92
2022/06/20 02:11:30+0000,-33.35,-42.78,-32.53,-42.09,-52.89,-53.80
2022/06/20 02:12:22+0000,-33.99,-42.65,-32.10,-41.63,-52.94,-53.43
2022/06/20 02:13:14+0000,-34.27,-41.65,-32.17,-41.18,-52.74,-53.25
2022/06/20 02:14:06+0000,-32.80,-42.56,-32.28,-41.01,-52.41,-53.67
2022/06/20 02:14:58+0000,-34.21,-41.56,-32.18,-41.79,-52.35,-53.57
2022/06/20 02:15:50+0000,-33.40,-41.43,-32.01,-41.29,-52.16,-53.13
2022/06/20 02:16:42+0000,-34.71,-43.12,-32.29,-39.83,-53.14,-54.10
2022/06/20 02:17:34+0000,-33.64,-41.77,-32.42,-42.58,-52.53,-53.92
2022/06/20 02:18:26+0000,-34.20,-42.41,-32.24,-42.11,-52.50,-53.45
2022/06/20 02:19:18+0000,-34.89,-40.86,-32.07,-42.97,-51.97,-53.54
2022/06/20 02:20:11+0000,-34.47,-41.15,-32.48,-41.42,-52.33,-53.47
2022/06/20 02:21:11+0000,-33.29,-41.89,-32.67,-41.08,-52.04,-53.65
2022/06/20 02:22:03+0000,-35.02,-41.98,-32.48,-44.51,-53.04,-53.43
2022/06/20 02:22:55+0000,-34.21,-42.23,-32.44,-42.59,-52.71,-53.78
2022/06/20 02:23:47+0000,-34.07,-42.24,-32.37,-41.95,-52.26,-53.57
2022/06/20 02:24:39+0000,-34.35,-41.34,-32.37,-41.55,-52.78,-53.82
2022/06/20 02:25:31+0000,-34.09,-41.09,-32.03,-41.51,-52.66,-54.07
2022/06/20 02:26:23+0000,-34.41,-42.54,-32.29,-42.27,-53.14,-53.98
2022/06/20 02:27:15+0000,-35.21,-42.68,-31.86,-41.63,-52.84,-53.91
2022/06/20 02:28:07+0000,-34.51,-41.43,-32.17,-39.69,-51.97,-53.26
2022/06/20 02:28:59+0000,-34.11,-41.58,-32.54,-42.54,-52.65,-53.81
2022/06/20 02:29:51+0000,-34.07,-41.47,-32.25,-41.67,-52.84,-53.28
2022/06/20 02:30:43+0000,-34.90,-40.88,-32.72,-39.91,-52.80,-53.81
2022/06/20 02:31:44+0000,-34.98,-41.16,-32.58,-40.11,-52.67,-54.24
2022/06/20 02:32:36+0000,-34.84,-42.57,-32.31,-40.32,-51.58,-53.47
2022/06/20 02:33:28+0000,-34.79,-41.77,-32.83,-40.77,-53.30,-53.56
2022/06/20 02:34:20+0000,-34.63,-41.44,-31.93,-42.16,-52.36,-53.63
2022/06/20 02:35:12+0000,-34.92,-42.51,-32.21,-40.18,-52.87,-54.09
2022/06/20 02:36:04+0000,-34.64,-41.55,-33.13,-42.20,-52.38,-54.08
2022/06/20 02:36:56+0000,-35.42,-42.19,-32.61,-40.72,-52.41,-53.88
2022/06/20 02:37:48+0000,-34.60,-41.69,-32.82,-40.91,-51.63,-53.28
2022/06/20 02:38:40+0000,-34.99,-42.22,-32.51,-41.71,-52.46,-54.17
2022/06/20 02:39:32+0000,-35.04,-42.41,-32.28,-41.26,-52.82,-53.84
2022/06/20 02:40:24+0000,-34.00,-42.83,-33.04,-42.30,-52.45,-54.08
2022/06/20 02:41:25+0000,-35.11,-41.57,-32.14,-42.17,-52.36,-53.94
2022/06/20 02:42:17+0000,-34.14,-42.72,-33.04,-39.22,-52.45,-53.92
2022/06/20 02:43:09+0000,-34.80,-41.94,-32.66,-39.55,-52.39,-53.80
2022/06/20 02:44:01+0000,-33.59,-42.46,-32.73,-41.16,-51.90,-53.82
2022/06/20 02:44:53+0000,-33.99,-42.16,-32.11,-41.85,-51.65,-53.82
2022/06/20 02:45:46+0000,-34.31,-42.91,-32.39,-39.62,-51.79,-53.58
2022/06/20 02:46:38+0000,-34.95,-42.08,-32.77,-39.65,-52.10,-53.64
2022/06/20 02:47:30+0000,-33.53,-43.05,-32.28,-41.76,-52.08,-53.65
2022/06/20 02:48:22+0000,-34.67,-42.76,-32.28,-42.26,-52.66,-53.70
2022/06/20 02:49:14+0000,-34.16,-41.98,-32.58,-40.64,-52.81,-53.48
2022/06/20 02:50:06+0000,-33.02,-42.68,-32.40,-41.56,-52.14,-54.54
2022/06/20 02:51:07+0000,-34.76,-42.45,-32.52,-40.05,-52.76,-53.68
2022/06/20 02:51:59+0000,-34.68,-42.57,-32.21,-41.01,-52.78,-53.41
2022/06/20 02:52:51+0000,-35.04,-42.45,-32.42,-40.53,-52.49,-53.62
2022/06/20 02:53:43+0000,-35.22,-41.69,-32.58,-41.23,-51.82,-53.81
2022/06/20 02:54:35+0000,-34.30,-42.06,-32.40,-42.06,-51.74,-54.00
2022/06/20 02:55:27+0000,-34.81,-41.94,-32.66,-41.76,-51.38,-54.05
2022/06/20 02:56:19+0000,-35.30,-41.89,-32.30,-42.68,-51.49,-53.60
2022/06/20 02:57:11+0000,-34.65,-41.88,-33.00,-39.55,-51.73,-54.19
2022/06/20 02:58:03+0000,-35.03,-42.40,-32.44,-42.93,-52.21,-53.43
2022/06/20 02:58:55+0000,-34.24,-42.85,-33.00,-40.60,-52.02,-53.84
2022/06/20 02:59:47+0000,-33.35,-42.24,-32.43,-39.96,-52.06,-54.12
2022/06/20 03:00:39+0000,-33.75,-42.14,-32.47,-41.06,-53.26,-54.10
2022/06/20 03:01:40+0000,-35.22,-42.10,-31.98,-40.67,-51.92,-53.68
2022/06/20 03:02:32+0000,-35.14,-42.21,-32.06,-43.05,-52.71,-53.31
2022/06/20 03:03:24+0000,-33.92,-42.07,-32.81,-41.56,-53.18,-53.46
2022/06/20 03:04:16+0000,-35.39,-42.22,-32.53,-41.99,-52.97,-53.72
2022/06/20 03:05:08+0000,-35.31,-41.99,-32.47,-41.53,-52.74,-53.93
2022/06/20 03:06:01+0000,-33.92,-41.92,-32.58,-41.51,-52.14,-53.30
2022/06/20 03:06:53+0000,-34.08,-42.27,-32.18,-41.87,-52.00,-53.73
2022/06/20 03:07:45+0000,-34.90,-41.36,-32.78,-40.93,-51.58,-53.69
2022/06/20 03:08:37+0000,-33.75,-41.20,-32.21,-42.32,-51.62,-53.92
2022/06/20 03:09:29+0000,-33.31,-42.08,-32.16,-41.58,-52.01,-53.38
2022/06/20 03:10:21+0000,-33.91,-42.26,-31.62,-41.19,-52.31,-53.45
2022/06/20 03:11:35+0000,-34.24,-41.02,-32.20,-39.17,-52.18,-53.77
2022/06/20 03:12:27+0000,-34.99,-42.46,-32.59,-42.99,-52.48,-54.17
2022/06/20 03:13:19+0000,-34.53,-42.25,-32.34,-43.18,-52.44,-53.65
2022/06/20 03:14:12+0000,-34.33,-41.78,-31.77,-40.82,-52.30,-54.49
2022/06/20 03:15:04+0000,-34.66,-42.08,-32.47,-41.59,-52.52,-53.83
2022/06/20 03:15:56+0000,-34.47,-42.28,-32.38,-41.03,-52.37,-54.21
2022/06/20 03:16:48+0000,-34.47,-43.12,-32.42,-42.41,-52.91,-54.49
2022/06/20 03:17:40+0000,-34.35,-42.26,-32.47,-39.76,-52.26,-53.48
2022/06/20 03:18:32+0000,-34.02,-42.41,-32.18,-40.75,-53.02,-54.07
2022/06/20 03:19:24+0000,-34.38,-42.52,-32.57,-41.46,-52.85,-54.88
2022/06/20 03:20:16+0000,-33.82,-42.71,-32.43,-40.20,-52.80,-54.01
2022/06/20 03:21:18+0000,-33.90,-42.36,-32.13,-40.91,-52.33,-54.11
2022/06/20 03:22:10+0000,-33.88,-41.98,-32.37,-40.61,-52.70,-53.75
2022/06/20 03:23:02+0000,-34.38,-41.55,-31.79,-40.88,-52.78,-53.99
2022/06/20 03:23:54+0000,-34.17,-41.10,-31.92,-40.62,-52.81,-54.10
2022/06/20 03:24:46+0000,-33.88,-41.62,-32.70,-41.70,-52.59,-53.79
2022/06/20 03:25:38+0000,-34.04,-41.07,-32.16,-41.27,-52.09,-53.73
2022/06/20 03:26:31+0000,-34.70,-42.26,-32.19,-39.75,-52.80,-53.53
2022/06/20 03:27:23+0000,-35.33,-41.68,-32.70,-41.35,-52.33,-54.05
2022/06/20 03:28:15+0000,-35.06,-42.06,-32.30,-40.51,-52.42,-54.23
2022/06/20 03:29:07+0000,-34.20,-41.58,-32.53,-40.35,-52.41,-53.62
2022/06/20 03:29:59+0000,-35.10,-42.66,-32.09,-40.66,-51.99,-53.88
2022/06/20 03:30:51+0000,-34.75,-41.78,-32.62,-40.70,-52.43,-54.13
2022/06/20 03:31:54+0000,-33.92,-41.48,-32.16,-40.08,-52.11,-53.71
2022/06/20 03:32:46+0000,-33.98,-42.35,-32.47,-40.28,-52.81,-53.76
2022/06/20 03:33:38+0000,-34.08,-44.34,-32.26,-41.67,-52.23,-53.60
2022/06/20 03:34:30+0000,-35.26,-41.19,-32.64,-41.16,-52.24,-53.77
2022/06/20 03:35:22+0000,-33.99,-42.78,-32.62,-40.04,-52.92,-53.80
2022/06/20 03:36:14+0000,-33.49,-41.88,-32.28,-42.88,-52.40,-53.75
2022/06/20 03:37:06+0000,-34.17,-42.23,-32.21,-40.90,-51.28,-53.19
2022/06/20 03:37:58+0000,-34.99,-41.95,-32.34,-41.81,-52.27,-53.79
2022/06/20 03:38:50+0000,-34.82,-41.10,-32.08,-42.53,-52.85,-53.63
2022/06/20 03:39:42+0000,-34.58,-41.79,-32.63,-40.87,-53.32,-53.94
2022/06/20 03:40:34+0000,-34.38,-42.40,-31.62,-42.79,-52.09,-53.81
2022/06/20 03:41:33+0000,-34.21,-41.13,-32.34,-40.10,-52.86,-53.43
2022/06/20 03:42:25+0000,-34.60,-42.46,-32.47,-40.59,-52.71,-54.19
2022/06/20 03:43:17+0000,-34.65,-41.30,-32.59,-41.19,-52.28,-53.84
2022/06/20 03:44:09+0000,-34.22,-41.89,-32.33,-41.81,-52.52,-54.33
2022/06/20 03:45:01+0000,-34.01,-41.85,-32.24,-40.52,-52.90,-53.72
2022/06/20 03:45:53+0000,-34.55,-41.40,-32.42,-41.24,-52.81,-53.52
2022/06/20 03:46:45+0000,-34.89,-42.49,-32.39,-41.85,-52.85,-54.12
2022/06/20 03:47:37+0000,-34.44,-43.11,-31.92,-41.38,-52.66,-53.78
2022/06/20 03:48:29+0000,-34.54,-41.54,-32.35,-41.69,-53.39,-54.05
2022/06/20 03:49:21+0000,-35.48,-42.00,-32.77,-41.06,-52.28,-53.11
2022/06/20 03:50:13+0000,-35.57,-41.58,-32.48,-41.59,-53.30,-53.22
2022/06/20 03:51:12+0000,-34.67,-42.94,-32.97,-41.24,-53.07,-53.86
2022/06/20 03:52:04+0000,-34.31,-42.37,-33.02,-42.97,-52.87,-53.73
2022/06/20 03:52:56+0000,-34.58,-42.74,-32.87,-41.61,-52.68,-53.61
2022/06/20 03:53:48+0000,-35.25,-42.76,-32.99,-40.65,-52.70,-54.03
2022/06/20 03:54:40+0000,-35.28,-42.90,-32.45,-41.28,-52.63,-53.37
2022/06/20 03:55:32+0000,-33.64,-41.17,-32.63,-42.64,-52.04,-53.64
2022/06/20 03:56:24+0000,-35.50,-41.88,-33.01,-41.54,-53.53,-54.07
2022/06/20 03:57:16+0000,-34.81,-41.92,-33.04,-40.60,-52.72,-53.78
2022/06/20 03:58:08+0000,-34.33,-42.54,-32.98,-41.66,-52.52,-54.02
2022/06/20 03:59:00+0000,-34.93,-41.73,-32.80,-41.92,-52.90,-53.75
2022/06/20 03:59:52+0000,-34.15,-43.18,-32.75,-42.29,-52.98,-53.64
2022/06/20 04:00:44+0000,-33.43,-41.93,-33.06,-40.11,-52.65,-53.89
2022/06/20 04:01:47+0000,-33.10,-41.95,-32.83,-41.34,-53.31,-53.73
2022/06/20 04:02:39+0000,-33.35,-41.30,-32.88,-40.76,-52.72,-54.00
2022/06/20 04:03:31+0000,-32.80,-41.78,-32.48,-40.42,-52.25,-53.99
2022/06/20 04:04:23+0000,-33.38,-41.78,-33.18,-40.96,-52.73,-53.26
2022/06/20 04:05:15+0000,-33.50,-40.81,-32.96,-40.04,-51.90,-53.42
2022/06/20 04:06:07+0000,-32.72,-41.33,-32.80,-41.56,-52.78,-53.13
2022/06/20 04:06:59+0000,-33.56,-41.64,-33.59,-40.04,-52.04,-53.56
2022/06/20 04:07:51+0000,-33.24,-42.19,-33.14,-41.42,-53.28,-53.75
2022/06/20 04:08:43+0000,-33.11,-41.82,-32.98,-40.99,-52.88,-53.36
2022/06/20 04:09:35+0000,-32.79,-42.39,-32.96,-40.69,-53.43,-53.76
2022/06/20 04:10:27+0000,-32.93,-41.04,-33.38,-41.01,-52.33,-53.84
2022/06/20 04:11:26+0000,-32.47,-41.44,-32.99,-41.33,-52.94,-53.75
2022/06/20 04:12:18+0000,-32.81,-41.41,-33.36,-41.53,-53.24,-53.72
2022/06/20 04:13:10+0000,-32.99,-40.94,-32.99,-41.46,-52.39,-53.13
2022/06/20 04:14:02+0000,-31.77,-41.56,-33.26,-40.23,-52.91,-54.13
2022/06/20 04:14:54+0000,-32.52,-41.22,-33.19,-40.30,-52.35,-53.49
2022/06/20 04:15:46+0000,-30.53,-41.46,-33.56,-39.60,-52.45,-53.82
2022/06/20 04:16:38+0000,-33.69,-40.37,-33.20,-41.00,-52.66,-53.11
2022/06/20 04:17:30+0000,-33.23,-42.04,-33.34,-40.64,-52.44,-53.86
2022/06/20 04:18:22+0000,-33.47,-42.35,-33.59,-41.56,-52.86,-53.16
2022/06/20 04:19:14+0000,-33.52,-40.17,-33.20,-41.01,-53.25,-53.65
2022/06/20 04:20:06+0000,-32.73,-41.71,-32.68,-39.89,-52.62,-53.84
2022/06/20 04:21:10+0000,-33.49,-41.24,-32.46,-40.47,-52.66,-53.55
2022/06/20 04:22:02+0000,-32.99,-41.85,-32.47,-41.60,-53.42,-53.87
2022/06/20 04:22:54+0000,-33.47,-41.19,-32.89,-41.47,-52.99,-53.69
2022/06/20 04:23:46+0000,-33.74,-41.62,-33.43,-41.18,-52.44,-53.69
2022/06/20 04:24:38+0000,-32.83,-41.26,-32.53,-41.38,-53.13,-53.57
2022/06/20 04:25:30+0000,-32.27,-44.51,-33.21,-40.56,-52.92,-53.21
2022/06/20 04:26:22+0000,-32.76,-45.33,-32.76,-41.47,-53.18,-53.39
2022/06/20 04:27:14+0000,-32.49,-44.22,-33.22,-39.21,-52.37,-53.88
2022/06/20 04:28:06+0000,-31.79,-41.11,-32.66,-41.06,-52.50,-53.72
2022/06/20 04:28:58+0000,-32.68,-42.09,-33.13,-40.93,-53.07,-53.49
2022/06/20 04:29:50+0000,-32.62,-40.76,-33.06,-41.95,-53.07,-53.85
2022/06/20 04:30:42+0000,-32.62,-40.13,-33.23,-42.11,-52.60,-54.04
2022/06/20 04:31:45+0000,-32.11,-40.92,-33.32,-39.45,-52.80,-53.77
2022/06/20 04:32:37+0000,-32.91,-40.84,-33.25,-39.04,-52.92,-53.43
2022/06/20 04:33:29+0000,-32.69,-40.83,-33.32,-41.36,-52.86,-53.84
2022/06/20 04:34:21+0000,-32.29,-41.54,-33.69,-41.67,-52.28,-53.24
2022/06/20 04:35:13+0000,-32.24,-41.53,-34.16,-39.95,-52.65,-53.67
2022/06/20 04:36:05+0000,-32.92,-40.65,-33.02,-42.53,-52.44,-53.34
2022/06/20 04:36:57+0000,-32.72,-41.39,-32.70,-41.67,-52.63,-53.11
2022/06/20 04:37:49+0000,-32.60,-41.17,-33.08,-40.46,-52.85,-53.45
2022/06/20 04:38:41+0000,-32.75,-41.48,-33.15,-40.48,-53.59,-53.56
2022/06/20 04:39:33+0000,-33.80,-41.86,-32.72,-41.57,-53.03,-53.77
2022/06/20 04:40:25+0000,-33.33,-42.32,-33.02,-40.93,-52.94,-53.02
2022/06/20 04:43:37+0000,-33.79,-41.82,-32.68,-41.06,-52.53,-52.94
2022/06/20 04:44:29+0000,-32.73,-39.77,-32.83,-41.98,-52.63,-53.07
2022/06/20 04:45:21+0000,-33.51,-41.65,-33.01,-40.36,-52.17,-53.69